Location: Teikarla
(61.1167°N, 23.0000°E)
Time: 22:23:09
(UTC+00:00)

Daily predictions for brighter satellites

Satellite Brightness Start Highest point End
(mag) Time Altitude Azimuth Time Altitude Azimuth Time Altitude Azimuth
Helios 1A Rocket 4.4 16:55:49 10° S 16:59:46 43° W 17:03:46 10° NNW
Okean 2 Rocket 3.5 16:56:11 10° SSE 17:00:22 40° E 17:04:32 10° NNE
YAOGAN 1 3.0 16:57:13 10° S 17:01:32 67° WSW 17:05:53 10° NNW
Cosmos 1536 Rocket 3.6 16:58:44 10° NNW 17:03:12 73° ENE 17:07:41 10° SSE
SPOT 3 Rocket 4.3 17:00:56 10° ESE 17:05:33 35° NE 17:10:13 10° N
CZ-4B R/B 3.0 17:02:45 10° N 17:06:03 42° WNW 17:09:22 10° SW
NOSS 3-1 (C) 3.8 17:00:07 10° WSW 17:06:14 80° NNW 17:13:39 10° ENE
Cosmos 2026 Rocket 4.4 17:02:14 10° N 17:08:24 47° ENE 17:14:32 10° SE
Cosmos 1092 Rocket 4.1 17:02:34 10° N 17:08:38 55° ENE 17:14:43 10° SE
ARIANE 5 R/B 4.2 17:05:34 10° E 17:08:39 19° NE 17:11:44 10° N
Cosmos 1125 Rocket 4.4 17:05:30 10° SSE 17:09:53 27° ESE 17:14:16 10° NE
H-2A R/B 4.3 17:08:40 10° N 17:12:37 30° NW 17:16:31 10° WSW
Cosmos 1464 Rocket 4.1 17:08:08 10° S 17:14:08 58° E 17:20:15 10° NNE
ADEOS Rocket 3.8 17:09:48 10° NNE 17:15:11 51° WNW 17:20:29 10° SW
GP-B 4.4 17:11:42 10° N 17:16:00 46° W 17:20:15 10° SSW
Resurs 1-3 4.4 17:12:24 10° ESE 17:16:23 35° ENE 17:20:24 10° N
CZ-2C R/B 3.7 17:12:06 10° S 17:17:37 70° WSW 17:23:23 10° NNW
NOSS 2-3 (E) 4.2 17:13:06 10° WSW 17:17:56 82° NNW 17:24:11 10° ENE
Cosmos 1674 2.7 17:14:10 10° NNW 17:18:02 71° ENE 17:21:53 10° SSE
SJ-6B 3.0 17:14:33 10° SE 17:18:11 47° ENE 17:21:55 10° N
CZ-4 R/B 2.9 17:16:21 10° S 17:20:21 42° W 17:24:19 10° NNW
MOS 1 Rocket 3.6 17:16:08 10° NNE 17:20:22 39° E 17:24:25 10° SSE
PSLV R/B 4.2 17:16:35 10° NNE 17:20:47 80° WNW 17:24:59 10° SSW
Cosmos 2084 3.7 17:17:00 10° W 17:21:27 70° N 17:25:56 10° E
Cosmos 1461 3.5 17:17:29 10° WNW 17:22:12 60° NNE 17:26:46 11° E
Cosmos 1782 Rocket 3.9 17:17:53 10° SSW 17:22:20 74° WNW 17:26:51 10° NNE
Okean-O 4.3 17:18:36 10° SSW 17:22:45 38° W 17:26:56 10° NNW
CZ-2C R/B 3.5 17:23:08 10° NNE 17:28:03 31° E 17:32:59 10° SSE
Cosmos 990 Rocket 4.4 17:26:57 10° SW 17:32:05 67° NW 17:37:16 10° NNE
ARGOS 3.3 17:27:16 10° SSE 17:32:40 79° WSW 17:38:07 10° NNW
NOSS 2-2 (C) 3.8 17:30:03 10° SSW 17:33:31 41° SE 17:37:41 10° ENE
DMSP B5D1-3 4.5 17:29:03 10° NNE 17:34:09 65° ESE 17:39:14 10° S
Cosmos 2082 Rocket 2.4 17:28:43 10° NW 17:34:20 62° NE 17:39:26 12° ESE
Uosat 12 SS-18 rocket 4.4 17:30:13 10° WNW 17:34:29 58° N 17:38:31 13° E
FREGAT/IRIS 2.3 17:33:55 10° SSE 17:36:29 54° ENE 17:39:03 10° N
MOS 1 4.3 17:33:12 10° SSE 17:38:54 78° ENE 17:44:38 10° NNW
Cosmos 1891 Rocket 4.4 17:34:16 10° S 17:40:19 82° ESE 17:46:24 10° NNE
Lacrosse 5 rocket 2.0 17:37:24 10° W 17:41:36 50° S 17:45:05 15° ESE
Cosmos 1340 Rocket 4.1 17:39:40 11° SE 17:42:23 21° E 17:45:26 10° NE
Cosmos 2151 Rocket 3.6 17:38:29 10° S 17:42:57 65° E 17:47:28 10° NNE
Cosmos 2297 Rocket 3.6 17:37:44 10° W 17:42:58 36° NNW 17:48:13 10° NE
NOSS 2-3 (D) 4.3 17:39:40 10° W 17:44:34 76° NNW 17:50:55 10° ENE
Cosmos 1733 4.0 17:41:17 10° SSE 17:44:37 29° E 17:47:58 10° NNE
COSMO-SKYMED 1 3.5 17:41:29 10° NNE 17:45:45 52° WNW 17:49:59 10° SW
Spot 2 Rocket 4.4 17:45:02 15° ESE 17:48:34 32° NE 17:53:02 10° N
Meteor 1-15 Rocket 4.4 17:43:09 10° S 17:48:40 55° E 17:54:21 10° NNE
Nadezhda 4 Rocket 4.3 17:43:13 10° NNW 17:49:19 70° W 17:55:23 10° S
Cosmos 1269 Rocket 4.4 17:47:10 10° NW 17:52:27 66° WSW 17:57:43 10° SSE
NOSS 8 (E) 4.1 17:52:40 10° WSW 17:55:42 90° NNW 17:58:34 13° ENE
Ariane Rocket 3.1 17:50:41 10° SSE 17:55:46 79° WSW 18:00:55 10° NNW
USA 116 3.6 17:52:39 10° NNE 17:56:08 81° WNW 18:00:00 10° SSW
Cosmos 1805 3.5 17:52:23 10° S 17:56:08 46° E 17:59:56 10° NNE
H-2A R/B 3.1 17:52:08 10° S 17:57:00 47° W 18:02:03 10° NNW
NOSS 8 (H) 4.1 17:54:01 10° WSW 17:57:02 74° SSE 17:59:51 14° ENE
Cosmos 909 Rocket 4.2 17:50:49 10° WNW 17:57:51 86° SW 18:03:01 16° SE
SL-08 RB Rocket 4.1 17:53:19 10° S 17:57:52 66° WSW 18:02:24 10° NNW
Cosmos 1140 Rocket 4.5 17:53:10 10° NNW 17:57:52 34° NE 18:01:18 16° E
OBJECT-B 0.8 17:55:36 14° SSE 17:58:17 64° ENE 18:01:33 10° N
SJ 16-02 3.3 17:56:01 10° WSW 17:59:57 31° NW 18:03:54 10° NNE
COSMOS 2406 3.5 17:54:24 10° NW 18:00:04 68° SW 18:05:42 10° SSE
Okean 1-7 Rocket 3.9 17:56:23 10° N 18:00:53 52° ENE 18:04:23 16° SE
Cosmos 1626 Rocket 4.4 17:57:00 10° N 18:01:03 33° ENE 18:03:25 20° ESE
Exosat Rocket 3.9 17:57:23 10° S 18:02:07 40° ESE 18:06:57 10° NE
Cosmos 407 Rocket 4.2 17:57:55 10° NNW 18:02:44 38° NE 18:06:03 18° E
Cosmos 2263 Rocket 2.7 17:57:47 10° WSW 18:03:21 64° NW 18:08:59 10° NE
Cosmos 1626 2.1 17:59:54 10° NNW 18:03:39 90° WSW 18:07:22 10° SSE
MetOp-A 4.2 18:00:50 10° SSE 18:06:12 81° WSW 18:11:37 10° NNW
Terra 3.4 18:03:57 15° E 18:06:19 22° NE 18:09:55 10° N
USA 229 DEB 3.9 18:00:34 10° W 18:07:25 74° N 18:14:14 12° E
USA 229 3.9 18:00:40 10° W 18:07:30 74° N 18:14:20 12° E
Cosmos 1844 Rocket 2.7 18:02:14 10° SSW 18:07:42 59° ESE 18:13:15 10° NE
USA 290 3.5 18:06:35 10° NNW 18:09:27 28° NE 18:10:37 22° ENE
Cosmos 372 Rocket 4.1 18:04:17 10° SW 18:09:32 84° WNW 18:14:47 10° NNE
Meteor 2-5 Rocket 4.0 18:04:09 10° NNW 18:09:47 72° WSW 18:15:30 10° S
NOSS 2-3 (C) 4.4 18:06:05 10° W 18:11:06 72° N 18:17:06 12° E
SPOT 1/Viking Rocket 4.2 18:08:06 20° ESE 18:11:12 39° NE 18:15:59 10° N
Cosmos 1455 Rocket 4.0 18:10:13 22° ESE 18:11:42 27° E 18:15:23 10° NNE
Cosmos 2266 Rocket 4.3 18:06:12 10° N 18:12:01 45° ENE 18:15:59 20° SE
Cosmos 2278 Rocket 3.3 18:10:00 18° SE 18:12:15 22° ESE 18:16:30 10° NE
Meteor 1-24 Rocket 3.8 18:06:54 10° NNW 18:12:26 82° WSW 18:18:08 10° S
ATLAS CENTAUR R/B 1.8 18:08:59 10° WNW 18:12:37 47° N 18:15:07 18° ENE
Lacrosse 4 Rocket 1.5 18:09:54 10° NW 18:13:58 71° SW 18:16:33 21° SE
ISS -1.9 18:12:10 10° SW 18:14:25 17° S 18:14:49 16° SSE
Meteor 2-19 Rocket 4.5 18:08:27 10° NNW 18:14:34 65° ENE 18:19:42 15° SSE
Cosmos 1844 3.7 18:09:39 10° SSW 18:15:11 56° ESE 18:20:40 10° NE
Cosmos 2034 Rocket 4.1 18:08:52 10° SSW 18:15:15 87° WNW 18:21:37 10° NNE
USA 186 3.1 18:12:43 10° S 18:15:51 41° W 18:19:01 10° NNW
NOSS 3-4 (A) 4.1 18:11:38 10° S 18:16:47 30° ESE 18:22:18 10° ENE
NOSS 3-4 (C) 4.1 18:11:46 10° S 18:16:55 30° ESE 18:22:24 10° ENE
NOSS 3-1 (A) 3.9 18:13:19 10° W 18:19:35 74° N 18:26:34 13° E
SL-14 R/B 3.5 18:18:44 10° NNW 18:22:40 70° WSW 18:26:27 11° S
Cosmos 1300 Rocket 4.5 18:19:28 10° SSW 18:23:49 53° WNW 18:28:13 10° N
Cosmos 614 Rocket 4.2 18:18:54 10° NNW 18:24:03 57° NE 18:26:54 25° ESE
Cosmos 1703 4.4 18:21:33 10° N 18:24:54 27° ENE 18:25:46 24° E
Cosmos 1833 Rocket 3.1 18:19:55 10° NW 18:25:31 61° WSW 18:30:11 15° SSE
Cosmos 2292 Rocket 3.2 18:22:57 10° N 18:25:47 37° ENE 18:26:07 36° E
Okean 1 Rocket 3.0 18:22:21 10° S 18:26:52 80° E 18:31:23 10° NNE
Resurs 01 Rocket 1.6 18:25:52 20° SSE 18:28:59 81° ENE 18:33:28 10° NNW
NOSS 2-2 (E) 3.4 18:25:21 10° WSW 18:29:11 82° SSE 18:33:40 12° ENE
Cosmos 2251 Rocket 3.5 18:24:16 10° NW 18:29:42 89° SW 18:33:15 22° SSE
CZ-2C R/B 4.2 18:26:01 10° NNE 18:30:09 35° E 18:31:44 27° SE
Cosmos 2298 Rocket 4.1 18:25:29 10° SW 18:30:50 82° NW 18:36:14 10° NNE
OPS 8737 4.2 18:32:50 10° WNW 18:35:41 65° NNE 18:36:25 44° ENE
Cosmos 1726 3.8 18:37:32 20° ENE 18:37:32 20° ENE 18:39:26 10° NE
ATLAS 3B R/B 3.4 18:30:47 10° WNW 18:37:15 48° SW 18:42:35 16° SSE
Cosmos 1470 3.2 18:37:10 36° ESE 18:37:39 38° E 18:41:16 10° NNE
Cosmos 1766 3.2 18:33:51 10° SSW 18:37:48 88° ESE 18:41:49 10° NNE
Okean 2 Rocket 4.5 18:34:14 10° SW 18:38:29 42° WNW 18:42:45 10° N
NOSS 2-2 (D) 3.3 18:35:15 10° WSW 18:39:01 81° SSE 18:42:55 15° ENE
ATLAS 2AS CENTAUR R/B 3.3 18:32:15 10° SSW 18:39:36 43° SE 18:46:48 10° ENE
ERS-1 Rocket 3.5 18:37:39 28° ESE 18:39:46 42° ENE 18:44:32 10° NNW
Cosmos 2227 Rocket 3.8 18:36:38 10° WNW 18:41:40 31° N 18:46:42 10° NE
Cosmos 1634 Rocket 3.9 18:36:43 10° S 18:42:53 78° E 18:49:09 10° NNE
Aureole 1 Rocket 4.3 18:38:20 10° NW 18:43:52 39° NE 18:46:00 25° E
IGS 5A 3.5 18:42:31 35° SE 18:44:05 63° ENE 18:48:13 10° NNW
ARIANE 5 R/B 2.5 18:42:31 31° SE 18:44:31 72° ENE 18:48:52 10° NNW
SPOT 3 Rocket 3.8 18:40:10 13° S 18:44:44 68° WSW 18:49:55 10° NNW
Meteor 1-21 Rocket 4.2 18:41:42 10° NNW 18:47:29 73° ENE 18:50:49 27° SSE
Cosmos 1892 Rocket 4.0 18:43:40 10° NNW 18:47:57 59° W 18:51:24 15° S
Cosmos 1655 Rocket 4.0 18:42:10 10° NNW 18:48:29 81° ENE 18:52:53 21° SSE
Cosmos 1190 Rocket 4.3 18:43:22 10° NNW 18:48:34 55° NE 18:50:48 32° ESE
Cosmos 1758 Rocket 4.3 18:44:35 10° N 18:48:48 38° ENE 18:49:51 33° E
Landsat 7 3.8 18:49:06 32° SE 18:51:19 73° ENE 18:56:06 10° NNW
Cosmos 1125 Rocket 3.5 18:46:07 10° SW 18:51:28 85° WNW 18:56:50 10° NE
Resurs 1-3 4.3 18:48:54 13° S 18:52:38 52° W 18:56:58 10° NNW
SPOT 5 3.4 18:54:34 33° ESE 18:56:36 50° ENE 19:01:48 10° NNW
CARTOSAT-1 3.9 18:56:13 39° ESE 18:57:14 48° ENE 19:01:25 10° N
NOSS 3-1 (C) 3.8 18:51:04 10° WNW 18:57:36 77° NNE 19:02:40 24° E
Cosmos 1953 3.6 18:58:56 26° ENE 18:58:56 26° ENE 19:01:30 10° NNE
MOS 1 Rocket 4.4 18:54:28 10° N 18:58:44 43° WNW 19:02:50 10° SW
Cosmos 2084 3.5 18:56:40 10° WNW 19:01:09 83° SSW 19:02:29 45° ESE
Cosmos 1461 3.3 18:56:45 10° WNW 19:01:31 69° SW 19:03:08 40° SSE
SL-27 R/B 3.9 18:58:56 10° NNW 19:02:01 26° NE 19:02:27 25° NE
Cosmos 2285 Rocket 4.0 18:56:00 10° SSW 19:02:21 89° WNW 19:08:48 10° NE
Cosmos 1544 Rocket 3.7 19:04:34 47° ESE 19:05:03 50° E 19:09:15 10° NNE
Meteor 1-11 4.5 19:01:09 10° NNW 19:06:37 51° ENE 19:08:27 37° ESE
CZ-2C R/B 2.9 19:03:19 10° NNE 19:08:51 74° WNW 19:14:26 10° SSW
Cosmos 1328 4.1 19:05:00 10° N 19:08:53 48° ENE 19:09:09 47° E
NOSS 2-3 (E) 4.5 19:03:48 10° WNW 19:09:05 73° N 19:13:04 25° E
CRYOSAT 2 4.3 19:04:20 10° N 19:09:16 85° E 19:12:04 26° S
deb Kosmos-1763 4.3 19:09:04 10° NW 19:12:40 60° WSW 19:13:11 52° SSW
TSX-5 4.2 19:08:51 10° SSW 19:13:12 66° SE 19:18:54 10° NE
Cosmos 2180 Rocket 4.4 19:12:35 19° S 19:17:12 73° E 19:23:35 10° NNE
USA 245 4.3 19:18:26 25° NNW 19:18:26 25° NNW 19:19:33 10° NNW
Cosmos 2098 Rocket 4.2 19:10:17 10° NNW 19:17:24 74° W 19:21:19 24° S
Cosmos 1758 3.2 19:17:38 65° SE 19:18:00 69° E 19:22:03 10° NNE
H-2A R/B 4.2 19:14:00 10° NNE 19:17:14 36° ENE 19:17:14 36° ENE
Cosmos 2082 Rocket 2.9 19:13:00 10° NW 19:18:23 47° WSW 19:21:16 25° S
Cosmos 1340 Rocket 3.0 19:15:12 15° SSW 19:18:26 70° WNW 19:22:29 10° NNE
DMSP B5D2-2 4.3 19:13:27 10° NNE 19:18:44 71° WNW 19:24:00 10° SSW
Cosmos 2279 Rocket 3.9 19:13:12 10° S 19:19:28 86° ESE 19:25:48 10° NNE
Cosmos 1733 4.3 19:16:28 10° SW 19:20:11 45° WNW 19:23:53 10° N
Lacrosse 5 rocket 2.5 19:16:21 10° W 19:20:19 32° SSW 19:20:43 32° SSW
MetOp-B 4.4 19:17:29 26° S 19:20:31 64° WSW 19:25:52 10° NNW
Uosat 12 SS-18 rocket 4.1 19:18:18 10° WNW 19:22:38 70° SW 19:23:30 55° SSE
Meteor 2-21 4.4 19:16:44 10° NNW 19:22:59 79° ENE 19:25:35 38° SSE
NOSS 2-2 (C) 3.6 19:19:58 10° WSW 19:23:51 77° NNW 19:26:24 27° ENE
Cosmos 1023 Rocket 4.3 19:18:48 10° NNW 19:23:57 81° NE 19:25:17 50° SE
Cosmos 1953 Rocket 4.1 19:21:38 10° N 19:25:48 42° ENE 19:25:55 42° ENE
Spot 2 Rocket 3.6 19:25:14 36° S 19:27:16 72° WSW 19:32:21 10° NNW
Cosmos 1809 Rocket 4.4 19:21:02 10° NNW 19:27:17 90° ENE 19:30:03 36° SSE
Cosmos 1602 Rocket 3.6 19:23:08 10° NNW 19:27:33 78° WSW 19:28:36 51° S
Cosmos 2297 Rocket 3.7 19:23:22 10° NW 19:28:26 32° N 19:32:54 13° ENE
COSMOS 2455 4.1 19:31:30 24° ENE 19:31:30 24° ENE 19:34:24 10° ENE
OBJECT-B 3.5 19:28:48 10° SW 19:31:00 17° W 19:33:17 10° NW
NOSS 2-3 (D) 4.4 19:30:22 10° WNW 19:35:44 77° NNE 19:38:50 34° E
Cosmos 1892 4.5 19:34:00 10° N 19:36:29 22° NE 19:36:29 22° NE
Cosmos 1626 Rocket 4.2 19:34:47 10° NNW 19:39:07 53° W 19:40:32 37° SSW
SJ 16-02 4.2 19:37:13 10° NW 19:39:53 15° NNW 19:42:33 10° NNE
Cosmos 1140 Rocket 3.4 19:35:04 10° NW 19:40:15 85° WSW 19:41:18 57° SSE
Terra 1.7 19:42:51 64° ESE 19:43:27 74° ENE 19:48:15 10° NNW
USA 290 3.3 19:40:54 10° NW 19:43:23 42° WNW 19:43:23 42° WNW
Cosmos 407 Rocket 3.5 19:40:00 10° NW 19:45:08 70° WSW 19:46:14 53° S
Cosmos 2263 Rocket 3.8 19:43:08 10° W 19:48:14 34° NNW 19:53:22 10° NE
Meteor 2-14 Rocket 4.4 19:42:05 10° NNW 19:48:17 82° WSW 19:50:29 42° S
Cosmos 1455 Rocket 3.5 19:47:18 30° SW 19:49:17 60° WNW 19:53:38 10° N
SPOT 1/Viking Rocket 4.0 19:48:43 37° SSW 19:50:32 57° WSW 19:55:39 10° NNW
Cosmos 1844 Rocket 3.5 19:46:20 10° WSW 19:51:48 52° NW 19:57:20 10° NE
ATLAS CENTAUR R/B 1.5 19:48:07 10° WNW 19:51:16 61° NW 19:51:16 61° NW
Lacrosse 4 Rocket 3.5 19:49:19 10° WNW 19:52:01 17° WSW 19:52:52 16° SW
Cosmos 1825 4.3 19:51:28 10° N 19:53:33 17° NE 19:53:33 17° NE
Cosmos 2278 Rocket 2.0 19:51:32 20° SSW 19:55:34 75° SE 20:01:15 10° NE
Cosmos 1954 Rocket 3.8 19:50:21 10° NNW 19:55:35 85° ENE 19:56:16 68° SE
Cosmos 2266 Rocket 4.5 19:51:38 10° NNW 19:57:31 53° W 20:00:33 28° SSW
Cosmos 676 Rocket 3.8 19:52:19 10° NW 19:57:35 88° NE 19:58:16 69° SE
USA 229 DEB 3.7 19:51:47 10° WNW 19:58:49 88° NNE 20:01:38 42° ESE
USA 229 3.7 19:51:53 10° WNW 19:58:54 88° NNE 20:01:44 42° ESE
Cosmos 1844 4.4 19:53:54 10° WSW 19:59:27 54° NW 20:04:59 10° NE
Cosmos 1703 3.8 19:57:25 10° NNW 20:01:07 54° W 20:01:07 54° W
Cosmos 2228 4.4 20:02:53 28° NE 20:02:53 28° NE 20:05:17 10° NNE
SL-08 R/B 4.5 19:55:19 10° NNW 20:01:43 71° ENE 20:03:07 54° SE
Cosmos 1850 Rocket 4.3 19:56:56 10° NNW 20:02:04 55° NE 20:02:47 51° ENE
NOSS 2-3 (C) 4.4 19:56:44 10° WNW 20:02:17 85° NNE 20:04:30 45° ESE
Exosat Rocket 4.3 19:58:35 10° WSW 20:03:28 52° NW 20:08:50 10° NE
Meteor 2-16 Rocket 4.4 19:58:20 10° NNW 20:04:30 87° WSW 20:06:04 53° S
Resurs 01 Rocket 3.7 20:03:26 14° SW 20:06:01 22° W 20:09:31 10° NW
NOSS 3-4 (A) 3.3 20:00:48 10° SW 20:06:54 75° SSE 20:13:36 10° ENE
NOSS 3-4 (C) 3.3 20:00:55 10° SW 20:07:00 75° SSE 20:13:42 10° ENE
CZ-2C R/B 4.4 20:03:08 10° NNE 20:07:28 51° WNW 20:09:58 24° SW
NOSS 3-1 (A) 3.8 20:04:16 10° WNW 20:11:00 87° NNE 20:13:58 42° ESE
Cosmos 1726 3.0 20:12:01 49° NNW 20:12:01 49° NNW 20:15:06 10° N
Spot 4 4.4 20:12:22 46° ENE 20:12:27 46° ENE 20:17:05 10° NNW
Cosmos 1470 4.2 20:12:29 28° WSW 20:13:45 36° WNW 20:17:23 10° N
ERS-1 Rocket 3.5 20:17:39 45° SW 20:18:34 51° W 20:23:30 10° NNW
NOSS 2-2 (E) 4.0 20:15:47 10° W 20:19:58 67° N 20:21:01 52° ENE
ARIANE 5 R/B 4.4 20:20:05 20° WSW 20:21:26 24° W 20:24:59 10° NW
COSMOS 2487 4.3 20:19:12 10° NNW 20:21:18 26° N 20:21:18 26° N
Cosmos 1346 Rocket 4.4 20:19:24 10° N 20:22:04 28° NNE 20:22:04 28° NNE
Cosmos 1825 Rocket 4.0 20:20:22 10° NNW 20:24:37 56° W 20:24:37 56° W
Cosmos 1758 Rocket 4.3 20:22:30 10° NNW 20:26:49 46° W 20:27:00 46° WSW
Cosmos 2227 Rocket 3.4 20:21:54 10° NW 20:27:08 36° NNE 20:29:53 23° ENE
Aureole 1 Rocket 3.4 20:23:19 10° NW 20:28:35 65° W 20:28:35 65° W
NOSS 2-2 (D) 3.9 20:25:42 10° W 20:29:49 67° N 20:30:18 62° NE
ATLAS 2AS CENTAUR R/B 2.9 20:22:08 10° WSW 20:30:08 84° SSE 20:37:50 10° ENE
Cosmos 1340 4.1 20:27:42 10° N 20:30:06 34° N 20:30:06 34° N
SL-08 ROCKET BODY 4.2 20:25:41 10° NNW 20:31:36 85° ENE 20:32:12 73° SSE
Cosmos 1408 4.5 20:28:45 10° N 20:30:39 26° NNE 20:30:39 26° NNE
Cosmos 1953 3.2 20:34:36 47° NW 20:34:36 47° NW 20:38:11 10° N
SPOT 5 3.8 20:33:48 41° SW 20:34:46 46° W 20:39:57 10° NNW
SL-27 R/B 4.2 20:33:51 10° NW 20:35:59 33° NW 20:35:59 33° NW
Cosmos 1833 4.1 20:32:03 10° NW 20:37:51 81° SW 20:38:11 77° S
Cosmos 1943 Rocket 3.5 20:42:33 26° ENE 20:42:33 26° ENE 20:45:21 10° NE
Cosmos 1386 Rocket 4.3 20:34:26 10° NNW 20:40:42 85° ENE 20:41:29 70° SSE
Cosmos 2058 3.9 20:39:01 10° N 20:42:05 43° NNE 20:42:05 43° NNE
Cosmos 1553 Rocket 4.0 20:46:30 66° ESE 20:46:54 68° E 20:53:17 10° NNE
NOSS 3-1 (C) 3.9 20:41:51 10° WNW 20:48:42 70° SW 20:50:02 59° SSE
Cosmos 2219 4.1 20:44:19 10° NW 20:49:47 44° NNE 20:51:26 36° ENE
Cosmos 1745 Rocket 3.8 20:51:32 10° NNW 20:57:41 77° W 20:58:16 71° SSW
CZ-4C R/B 3.2 21:00:08 37° ENE 21:00:08 37° ENE 21:04:14 10° ENE
NOSS 2-3 (E) 4.4 20:54:20 10° WNW 21:00:06 73° SSW 21:00:28 71° S
ALOS 2 3.5 21:01:54 46° NNE 21:01:54 46° NNE 21:05:16 10° NNW
Cosmos 1606 Rocket 4.4 21:03:52 46° N 21:03:52 46° N 21:06:59 10° NNE
SME Rocket 3.6 21:01:15 10° NNE 21:07:13 79° NNW 21:07:13 79° NNW
Cosmos 1741 Rocket 4.2 21:02:15 10° NW 21:07:05 67° WNW 21:07:05 67° WNW
Cosmos 1892 4.5 21:09:22 10° NNW 21:11:27 31° NNW 21:11:27 31° NNW
Cosmos 2297 Rocket 2.8 21:08:07 10° NW 21:13:39 50° NNE 21:14:40 45° ENE
COSMOS 2455 2.7 21:14:36 87° E 21:14:36 87° E 21:20:37 10° NE
NOSS 2-2 (C) 4.4 21:10:29 10° WNW 21:13:47 53° NW 21:13:47 53° NW
Cosmos 1371 Rocket 4.5 21:16:44 54° NE 21:16:44 54° NE 21:20:55 10° NE
Meteor 2-3 Rocket 4.3 21:11:31 10° NNW 21:16:55 46° ENE 21:17:03 46° ENE
RESURS DK-1 4.2 21:19:23 27° NNE 21:19:23 27° NNE 21:21:25 10° NE
SJ 16-02 4.2 21:17:46 10° NNW 21:20:16 15° N 21:22:45 10° NE
Terra 3.4 21:21:44 26° W 21:21:44 26° W 21:25:43 10° NNW
Helios 1A 4.4 21:26:50 33° NNE 21:26:50 33° NNE 21:29:41 10° N
Cosmos 2369 Rocket 3.1 21:28:45 36° ENE 21:28:45 36° ENE 21:32:24 10° NE
Thor Agena Rocket 4.4 21:22:38 10° NNE 21:26:35 41° ENE 21:26:35 41° ENE
Timation 2 Rocket 3.9 21:22:05 10° NW 21:28:16 79° NE 21:28:43 74° E
Cosmos 2074 Rocket 4.2 21:22:40 10° NNW 21:28:56 59° ENE 21:29:19 58° E
Cosmos 2056 Rocket 4.0 21:31:06 54° NE 21:31:06 54° NE 21:35:09 10° NE
Cosmos 1825 4.1 21:26:26 10° NNW 21:28:20 28° NNW 21:28:20 28° NNW
ATLAS CENTAUR R/B 4.0 21:27:10 10° WNW 21:27:26 11° WNW 21:27:26 11° WNW
Meteor 2-8 Rocket 4.4 21:30:27 70° WSW 21:30:54 73° WNW 21:37:01 10° NNE
Cosmos 1709 Rocket 3.9 21:25:42 10° NNW 21:31:52 76° W 21:32:01 75° WSW
Cosmos 2263 Rocket 3.8 21:28:33 10° NW 21:33:35 32° N 21:38:40 10° ENE
Cosmos 2297 3.7 21:34:32 77° N 21:34:32 77° N 21:39:52 10° NE
Cosmos 1844 Rocket 4.4 21:31:50 10° WNW 21:36:50 32° N 21:41:52 10° NE
Cosmos 2228 4.4 21:39:43 36° NW 21:39:43 36° NW 21:42:57 10° N
Cosmos 2278 Rocket 3.2 21:34:37 10° WSW 21:40:04 45° NNW 21:45:32 10° NE
S3M 3.9 21:43:04 80° W 21:43:14 80° WNW 21:49:25 10° NNE
Cosmos 968 Rocket 3.9 21:40:53 10° NNW 21:45:48 59° NNE 21:45:48 59° NNE
Meteor 2-15 Rocket 4.3 21:49:08 88° N 21:49:08 88° N 21:55:17 10° NNE
USA 229 DEB 4.1 21:42:45 10° WNW 21:49:03 49° WSW 21:49:03 49° WSW
USA 229 4.1 21:42:51 10° WNW 21:49:09 50° WSW 21:49:09 50° WSW
NOSS 3-4 (A) 3.7 21:51:42 10° W 21:57:59 74° N 22:05:00 10° E
NOSS 3-4 (C) 3.7 21:51:48 10° W 21:58:05 74° N 22:05:06 10° E
Cosmos 2058 Rocket 4.3 22:00:10 39° NNW 22:00:10 39° NNW 22:03:21 10° N
Meteor 2-10 Rocket 3.8 22:00:41 71° NE 22:00:41 71° NE 22:05:47 10° NNE
Cosmos 1624 Rocket 4.4 22:02:28 63° N 22:02:28 63° N 22:07:08 10° NNE
NOSS 3-1 (A) 4.1 21:55:03 10° WNW 22:01:23 53° WSW 22:01:23 53° WSW
SL-16 R/B 3.7 22:05:31 28° E 22:07:50 37° NE 22:13:25 10° NNW
Cosmos 2227 Rocket 2.3 22:06:19 10° NW 22:11:41 72° NNE 22:11:41 72° NNE
Cosmos 1656 Rocket 4.4 22:16:30 45° ENE 22:16:30 45° ENE 22:20:33 10° NE
Cosmos 2184 Rocket 3.9 22:09:42 10° NNW 22:15:45 84° WNW 22:15:45 84° WNW
Cosmos 2315 Rocket 3.9 22:16:20 85° W 22:16:22 85° WNW 22:22:41 10° NNE
Cosmos 883 Rocket 4.5 22:16:26 75° W 22:16:36 75° WNW 22:22:53 10° NNE
ATLAS 2AS CENTAUR R/B 3.1 22:13:36 10° W 22:21:33 74° N 22:29:04 10° E
Cosmos 1943 Rocket 2.3 22:24:03 70° NNW 22:24:03 70° NNW 22:29:21 10° NE
Cosmos 1295 Rocket 4.5 22:20:51 10° NNW 22:27:11 74° ENE 22:27:23 73° E
ATLAS 5 CENTAUR R/B 4.1 22:34:32 14° E 22:34:32 14° E 22:35:31 10° ENE
Cosmos 1610 Rocket 4.4 22:27:28 10° NNW 22:33:36 88° NNW 22:33:36 88° NNW
Cosmos 2219 3.5 22:28:41 10° NW 22:33:19 59° WNW 22:33:19 59° WNW
Nimbus 7 Rocket 4.4 22:28:51 10° NNE 22:34:50 87° NE 22:34:50 87° NE
Cosmos 371 Rocket 4.1 22:42:29 47° NNW 22:42:29 47° NNW 22:46:40 10° NNE
CZ-4C R/B 2.5 22:45:17 64° WNW 22:46:15 78° NNW 22:53:22 10° ENE
Cosmos 2218 Rocket 4.5 22:41:19 10° NNW 22:47:39 55° ENE 22:48:50 48° ESE
Cosmos 1354 Rocket 4.4 22:45:05 10° NW 22:49:18 58° NNW 22:49:18 58° NNW
Geosat 4.3 22:56:13 63° NNE 22:56:13 63° NNE 23:01:03 10° NW
RESURS DK-1 4.3 22:55:15 25° NW 22:56:05 27° NNW 22:59:41 10° NE
Cosmos 1455 4.4 22:58:30 23° NNW 22:58:30 23° NNW 23:00:17 10° N
Cosmos-2242 4.3 22:58:39 38° N 22:58:39 38° N 23:01:25 10° NNE
Cosmos 2297 Rocket 2.8 22:52:20 10° NW 22:56:26 46° WNW 22:56:26 46° WNW
USA 234 3.7 22:51:39 10° E 22:56:08 44° ESE 22:56:08 44° ESE
Meteor 2-3 Rocket 4.3 22:54:52 10° NNW 22:59:20 45° WNW 22:59:20 45° WNW
SJ 16-02 3.3 22:56:34 10° NNW 23:00:20 26° NE 23:02:27 19° ENE
COSMOS 2455 3.5 22:57:42 26° W 23:00:57 53° NNW 23:06:54 10° ENE
Thor Agena Rocket 4.2 23:02:05 10° NNE 23:07:09 47° WNW 23:07:09 47° WNW
Cosmos 2082 3.8 23:01:51 10° NW 23:06:50 69° NW 23:06:50 69° NW
Cosmos 2221 3.9 23:09:06 36° NE 23:09:06 36° NE 23:12:00 10° NNE
Cosmos 2369 Rocket 2.5 23:10:31 57° WNW 23:10:59 59° NW 23:16:38 10° NE
Cosmos 2154 Rocket 4.1 23:04:52 10° NNW 23:10:45 59° W 23:10:45 59° W
Cosmos 1697 Rocket 4.5 23:17:28 19° ESE 23:17:47 19° E 23:21:38 10° ENE
Cosmos 962 Rocket 4.4 23:11:50 10° NNW 23:18:00 76° W 23:18:00 76° W
Cosmos 2263 Rocket 2.8 23:13:02 10° NW 23:18:36 55° NE 23:22:19 21° ESE
Cosmos 2263 4.4 23:19:07 62° WNW 23:19:31 64° NW 23:25:19 10° NE
Cosmos 2181 Rocket 4.5 23:20:19 46° ESE 23:21:11 49° E 23:27:10 10° NNE
Cosmos 1844 Rocket 4.2 23:17:00 10° NW 23:22:09 35° NNE 23:27:19 10° E
Cosmos 1777 Rocket 4.1 23:18:32 10° NNW 23:23:21 70° N 23:23:21 70° N
Cosmos 1980 Rocket 4.4 23:23:46 12° ESE 23:25:07 13° E 23:27:43 10° ENE
Cosmos 2278 Rocket 3.9 23:20:24 10° WNW 23:25:25 31° N 23:30:26 10° ENE
Meteor 1-27 4.2 23:25:48 86° NE 23:25:48 86° NE 23:31:23 10° NNE
Sich 1 4.0 23:25:58 10° NNW 23:29:00 44° N 23:29:00 44° N
Cosmos 1452 Rocket 4.1 23:31:14 46° NW 23:31:32 47° NW 23:36:39 10° NNE
Cosmos 2341 Rocket 3.9 23:26:04 10° NNW 23:32:24 69° W 23:32:29 69° WSW
Cosmos 1110 Rocket 4.1 23:36:05 69° NNW 23:36:05 69° NNW 23:41:12 10° NNE
Cosmos 405 Rocket 4.3 23:32:05 10° NNW 23:34:32 35° N 23:34:32 35° N
Cosmos 1818 4.3 23:39:49 43° ESE 23:39:49 43° ESE 23:44:13 10° ENE
Cosmos 1331 Rocket 4.1 23:40:09 69° NNW 23:40:09 69° NNW 23:45:06 10° NNE
Meteor 2-2 Rocket 4.3 23:40:40 71° SE 23:40:57 73° ESE 23:46:50 10° NNE
Lacrosse 5 4.0 23:43:17 16° ESE 23:43:17 16° ESE 23:44:55 10° E
Nadezhda 1 Rocket 3.9 23:41:57 69° W 23:42:16 70° WNW 23:48:22 10° NNE
MOZ.5/SAFIR/RUBIN 5/SL-8 4.5 23:44:49 46° NW 23:44:49 46° NW 23:48:13 10° NNW
Cosmos 1302 Rocket 4.0 23:43:59 77° ENE 23:43:59 77° ENE 23:48:54 10° NE
Resurs 1-4 Rocket 2.9 23:40:18 10° NNE 23:45:16 40° E 23:45:52 38° ESE
PSLV R/B 4.2 23:41:09 10° NNE 23:44:49 54° NNW 23:44:49 54° NNW
Meteor 2-12 Rocket 4.5 23:41:11 10° NNW 23:47:00 61° W 23:47:00 61° W
COBE Rocket 4.0 23:47:29 81° NE 23:47:29 81° NE 23:52:36 10° NNW
Helios 1B rocket 3.3 23:43:18 10° NNE 23:46:22 48° NNE 23:46:22 48° NNE
NOSS 3-4 (A) 3.6 23:42:47 10° WNW 23:49:19 85° NNE 23:56:37 10° ESE
NOSS 3-4 (C) 3.6 23:42:54 10° WNW 23:49:25 85° NNE 23:56:44 10° ESE
Cosmos 1842 Rocket 4.2 23:51:54 55° N 23:51:54 55° N 23:55:32 10° NNE
Cosmos 2227 4.3 23:45:20 10° NW 23:51:03 75° NE 23:53:14 39° ESE
SL-16 R/B 2.3 23:50:37 73° SSW 23:51:07 78° WSW 23:57:20 10° NNW
CZ-2D R/B 2.8 23:46:34 10° NNE 23:51:38 42° E 23:52:17 41° ESE
